sat.trackr.live / text

‹ back to catalog

ONEWEB-0342

NORAD 49208 · 2021-083Y

PAYLOAD ACTIVE UNKNOWN

§ Identity

Operator
Country
UK
Launch date
2021-09-14
Launch site
TYMSC
Launch vehicle
Mass (kg)
RCS (m²)

Purposes: comms

External: N2YO · Heavens-Above · Gunter

§ Orbital elements

Epoch: 2026-09-19T23:18:22.169088Z

Period
109.03 min
Inclination
87.9143°
Eccentricity
0.0001891
Mean motion
13.20770947 rev/d
Perigee alt
1,180.3 km
Apogee alt
1,183.2 km
Semi-major
7,559.9 km
B*
1.1954e-4
RAAN
255.5272°
Arg perigee
85.5060°
Mean anomaly
274.6289°
Rev number
24,929

§ Raw data

ONEWEB-03421 49208U 21083Y   26262.97108992  .00000062  00000+0  11954-3 0  99902 49208  87.9143 255.5272 0001891  85.5060 274.6289 13.20770947249292

JSON: /api/v1/satellites/49208 · /tle

For live sub-satellite position, see the globe view (requires WebGL).

§ Visibility from observer

Set your observer location to see the next 7 days of passes ≥ 10°. The values pass through the URL so the page stays shareable.

No JS? Fill the form by hand. The geolocation button needs JavaScript.